Yakima, WA

6:19 PM PDT on August 20, 2017 (GMT -0700)
Yakima Air Term-McAllister

Weather History for KYKM - November, 2012

Change the Weather History Date:

Wednesday, November 28, 2012

  Actual Average Record
Temperature  
Mean Temperature 34 °F 33 °F  
Max Temperature 38 °F 41 °F 66 °F (1995)
Min Temperature 29 °F 24 °F 8 °F (1976)
Degree Days  
Heating Degree Days 31 32  
Month to date heating degree days 646 764  
Since 1 July heating degree days 1183 1468  
Cooling Degree Days 0 0  
Month to date cooling degree days 0 0  
Year to date cooling degree days 667 472  
Moisture  
Dew Point 30 °F    
Average Humidity 84    
Maximum Humidity 92    
Minimum Humidity 76    
Precipitation  
Precipitation 0.03 in 0.04 in 0.98 in (2001)
Month to date precipitation 0.61 0.96  
Year to date precipitation 7.14 6.63  
Snow  
Snow 0.00 in 0.20 in 12.30 in (2001)
Month to date snowfall 0.8 3.0  
Year to date snowfall 22.3 11.7  
Since 1 July snowfall 0.8 3.1  
Snow Depth 0.00 in    
Sea Level Pressure  
Sea Level Pressure 29.95 in    
Wind  
Wind Speed 2 mph (NNE)    
Max Wind Speed 17 mph    
Max Gust Speed -    
Visibility 4 miles    
Events Fog , Rain , Snow    
T = Trace of Precipitation, MM = Missing Value Source: NWS Daily Summary

Daily Weather History Graph

Daily Weather History Graph

Search for Another Location

Airport or City:

Trip Planner

Search our weather history database for the weather conditions in past years. The results will help you decide how hot, cold, wet, or windy it might be!

Date:

Astronomy

Nov. 28, 2012 Rise Set
Actual Time 7:22 AM PST 4:17 PM PST
Civil Twilight 6:48 AM PST 4:51 PM PST
Nautical Twilight 6:10 AM PST 5:29 PM PST
Astronomical Twilight 5:34 AM PST 6:05 PM PST
Moon 4:36 PM PST (11/28) 7:24 AM PST (11/28)
Length of Visible Light 10h 03m
Length of Day
8h 55m
Full, 100% of the Moon is Illuminated
Nov 28
Full
Dec 6
Last Quarter
Dec 13
New
Dec 19
First Quarter
Dec 28
Full

Hourly Weather History & Observations

Time (PST) Temp. Windchill Dew Point Humidity Pressure Visibility Wind Dir Wind Speed Gust Speed Precip Events Conditions
12:53 AM 30.9 °F 26.2 °F 28.0 °F 89% 30.14 in 10.0 mi West 4.6 mph - N/A   Mostly Cloudy
1:23 AM 32.0 °F - 28.4 °F 87% 30.10 in 9.0 mi Calm Calm - N/A   Partly Cloudy
1:53 AM 30.0 °F 26.5 °F 27.0 °F 88% 30.12 in 7.0 mi SSE 3.5 mph - N/A   Mostly Cloudy
2:53 AM 30.9 °F - 28.0 °F 89% 30.11 in 7.0 mi Calm Calm - N/A   Overcast
3:23 AM 30.2 °F - 28.4 °F 93% 30.06 in 7.0 mi Calm Calm - N/A   Overcast
3:53 AM 30.2 °F - 28.4 °F 93% 30.06 in 7.0 mi Calm Calm - N/A   Overcast
4:53 AM 30.9 °F 27.5 °F 28.0 °F 89% 30.07 in 5.0 mi SE 3.5 mph - N/A   Overcast
5:39 AM 30.2 °F - 26.6 °F 86% 30.04 in 5.0 mi Calm Calm - N/A   Scattered Clouds
5:53 AM 30.0 °F - 27.0 °F 88% 30.07 in 5.0 mi Calm Calm - N/A   Clear
6:53 AM 28.9 °F - 26.1 °F 89% 30.04 in 10.0 mi Calm Calm - N/A   Clear
7:53 AM 30.0 °F - 27.0 °F 88% 30.03 in 8.0 mi Calm Calm - N/A   Clear
8:53 AM 30.9 °F - 28.0 °F 89% 30.01 in 6.0 mi Calm Calm - N/A   Scattered Clouds
9:53 AM 34.0 °F 29.8 °F 30.0 °F 85% 29.98 in 5.0 mi West 4.6 mph - N/A   Clear
10:53 AM 37.0 °F - 30.9 °F 79% 29.98 in 7.0 mi Calm Calm - N/A   Clear
11:53 AM 36.0 °F 33.3 °F 30.0 °F 79% 29.94 in 6.0 mi ENE 3.5 mph - N/A   Haze
12:53 PM 36.0 °F 30.3 °F 30.9 °F 82% 29.89 in 4.0 mi NE 6.9 mph - 0.01 in Rain Light Rain
1:53 PM 37.9 °F - 32.0 °F 79% 29.89 in 7.0 mi Calm Calm - 0.00 in   Overcast
2:53 PM 35.1 °F 31.0 °F 32.0 °F 89% 29.87 in 2.5 mi East 4.6 mph - 0.01 in Snow Light Snow
3:12 PM 35.6 °F - 33.8 °F 93% 29.83 in 4.0 mi Calm Calm - 0.01 in Snow Light Snow
3:25 PM 35.6 °F 32.8 °F 32.0 °F 87% 29.82 in 4.0 mi West 3.5 mph - 0.01 in Rain Light Rain
3:53 PM 35.1 °F 30.1 °F 32.0 °F 89% 29.85 in 4.0 mi West 5.8 mph - 0.01 in Rain Light Rain
4:53 PM 36.0 °F 33.3 °F 33.1 °F 89% 29.85 in 5.0 mi WNW 3.5 mph - 0.00 in Rain Light Rain
5:53 PM 35.1 °F - 33.1 °F 92% 29.86 in 4.0 mi Calm Calm - 0.00 in   Overcast
6:53 PM 33.1 °F - 30.9 °F 92% 29.87 in 5.0 mi Calm Calm - N/A   Partly Cloudy
7:53 PM 30.9 °F 26.2 °F 28.9 °F 92% 29.88 in 5.0 mi NNW 4.6 mph - N/A   Scattered Clouds
8:53 PM 30.0 °F - 28.0 °F 92% 29.89 in 4.0 mi Calm Calm - N/A   Scattered Clouds
9:02 PM 30.2 °F 25.4 °F 28.4 °F 93% 29.86 in 3.0 mi East 4.6 mph - N/A   Scattered Clouds
9:08 PM 32.0 °F 28.7 °F 28.4 °F 87% 29.86 in 2.0 mi East 3.5 mph - N/A   Mostly Cloudy
9:13 PM 30.2 °F 25.4 °F 28.4 °F 93% 29.85 in 1.0 mi ENE 4.6 mph - N/A   Mist
9:20 PM 32.0 °F - 30.2 °F 93% 29.86 in 0.2 mi Calm Calm - N/A Fog Fog
9:53 PM 30.9 °F 26.2 °F 28.9 °F 92% 29.90 in 0.2 mi West 4.6 mph - N/A Fog Light Freezing Fog
10:53 PM 32.0 °F - 30.0 °F 92% 29.91 in 0.2 mi Calm Calm - N/A Fog Fog
11:00 PM 32.0 °F - 30.2 °F 93% 29.88 in 0.2 mi Calm Calm - N/A Fog Fog
11:33 PM 32.0 °F - 30.2 °F 93% 29.88 in 0.5 mi Calm Calm - N/A Fog Fog
11:53 PM 32.0 °F 27.5 °F 30.0 °F 92% 29.91 in 0.5 mi North 4.6 mph - N/A Fog Fog